This demonstration page uses our WeatherBlox Daily Observations layout. Learn more.

41.55636, -103.73856

Hourly Observations for December 1, 2015

Temp ( °F °C ) Dew Point ( °F °C ) Humidity (%) Winds ( mph kmh ) Pressure ( in mb ) Visibility ( mi km ) Precip ( " mm )
12:53 am 00:53 Cloudy 28 -2 14 -10 55 55 WNW 21 33 29.94 1014 10 16.09344 0 0
1:53 am 01:53 Cloudy 28 -2 14 -10 55 55 WNW 23 37 29.94 1014 10 16.09344 0 0
2:53 am 02:53 Cloudy 28 -2 12 -11 51 51 WNW 25 41 29.94 1014 10 16.09344 0 0
3:53 am 03:53 Cloudy 28 -2 12 -11 51 51 WNW 15 24 29.94 1014 10 16.09344 0 0
4:53 am 04:53 Cloudy 28 -2 14 -10 55 55 WNW 17 28 29.94 1014 10 16.09344 0 0
5:53 am 05:53 Cloudy 28 -2 12 -11 51 51 WNW 20 31 29.94 1014 10 16.09344 0 0
6:53 am 06:53 Cloudy 28 -2 12 -11 51 51 WNW 17 28 29.97 1015 10 16.09344 0 0
7:53 am 07:53 Cloudy 30 -1 12 -11 47 47 WNW 24 39 29.94 1014 10 16.09344 0 0
8:53 am 08:53 Cloudy 30 -1 16 -9 55 55 WNW 22 35 30 1016 10 16.09344 0 0
9:53 am 09:53 Cloudy 34 1 18 -8 51 51 NW 20 31 29.94 1014 10 16.09344 0.001 0.001
10:53 am 10:53 Cloudy 36 2 14 -10 41 41 NW 29 46 29.94 1014 10 16.09344 0 0
11:53 am 11:53 Cloudy 36 2 16 -9 44 44 NNW 31 50 29.97 1015 10 16.09344 0 0
12:53 pm 12:53 Mostly Cloudy 39 4 12 -11 33 33 NW 31 50 29.91 1013 10 16.09344 0 0
1:53 pm 13:53 Cloudy 37 3 12 -11 35 35 NW 30 48 29.97 1015 10 16.09344 0 0
2:53 pm 14:53 Cloudy 37 3 10 -12 33 33 NW 26 43 30 1016 10 16.09344 0 0
3:53 pm 15:53 Cloudy 37 3 12 -11 35 35 NW 22 35 30 1016 10 16.09344 0 0
4:53 pm 16:53 Clear 28 -2 16 -9 59 59 WNW 13 20 30.03 1017 10 16.09344 0 0
5:53 pm 17:53 Cloudy 36 2 16 -9 44 44 WNW 17 28 30.03 1017 10 16.09344 0 0
6:53 pm 18:53 Cloudy 36 2 16 -9 44 44 WNW 16 26 30.09 1019 10 16.09344 0 0
7:53 pm 19:53 Cloudy 36 2 16 -9 44 44 NW 18 30 30.09 1019 10 16.09344 0 0
8:53 pm 20:53 Cloudy 34 1 16 -9 48 48 NW 10 17 30.12 1020 10 16.09344 0 0
9:53 pm 21:53 Cloudy 36 2 16 -9 44 44 NW 16 26 30.12 1020 10 16.09344 0 0
10:53 pm 22:53 Cloudy 36 2 14 -10 41 41 WNW 17 28 30.15 1021 10 16.09344 0 0
11:53 pm 23:53 Mostly Cloudy 32 0 14 -10 47 47 WNW 13 20 30.18 1022 10 16.09344 0 0

Powered by AerisWeather